EDT,Max TemperatureF,Mean TemperatureF,Min TemperatureF,Max Dew PointF,MeanDew PointF,Min DewpointF,Max Humidity, Mean Humidity, Min Humidity, Max Sea Level PressureIn, Mean Sea Level PressureIn, Min Sea Level PressureIn, Max VisibilityMiles, Mean VisibilityMiles, Min VisibilityMiles, Max Wind SpeedMPH, Mean Wind SpeedMPH, Max Gust SpeedMPH,PrecipitationIn, CloudCover, Events, WindDirDegrees
2013-4-1,64,52,37,45,37,14,97,69,31,29.96,29.76,29.68,10,7,2,22,9,34,0.00,2,,265
2013-4-2,45,37,30,14,12,9,46,33,24,30.14,30.05,29.99,10,10,10,21,9,32,0.00,0,,289
2013-4-3,48,38,30,14,12,7,47,34,24,30.33,30.22,30.14,10,10,10,23,11,30,0.00,1,,290
2013-4-4,52,40,28,24,17,10,51,39,27,30.44,30.30,30.12,10,10,10,13,6,17,0.00,0,,252
2013-4-5,64,50,37,36,26,15,93,50,18,30.10,29.92,29.76,10,9,5,16,6,26,0.02,3,Rain,317
2013-4-6,52,44,35,27,18,13,62,38,23,30.33,30.27,30.07,10,10,10,24,11,29,0.00,0,,352
2013-4-7,63,50,37,43,34,26,79,57,34,30.34,30.18,30.02,10,10,10,16,5,26,0.00,1,,194
2013-4-8,75,62,48,49,44,41,80,52,33,30.09,30.03,29.99,10,10,10,9,5,,0.00,0,,212
2013-4-9,82,71,60,52,48,43,72,45,26,30.02,29.98,29.92,10,10,10,16,9,25,0.00,1,,252
2013-4-10,88,74,60,61,54,50,96,61,33,29.95,29.88,29.80,10,9,2,30,10,51,0.46,3,Rain-Thunderstorm,243
2013-4-11,66,58,48,61,54,43,97,82,67,29.99,29.92,29.80,10,10,6,18,7,24,0.00,6,,69
2013-4-12,48,45,42,45,43,41,100,93,80,29.97,29.80,29.70,10,5,2,21,15,34,1.13,8,Rain,61
2013-4-13,60,48,37,43,37,33,100,72,38,29.99,29.89,29.79,10,8,2,16,5,22,0.00,3,,317
2013-4-14,61,50,39,38,32,26,83,50,31,30.19,30.09,30.00,10,10,10,17,6,24,0.00,1,,305
2013-4-15,57,52,46,40,35,30,71,55,45,30.37,30.31,30.20,10,10,10,13,9,,0.00,6,Rain,119
2013-4-16,72,59,46,53,48,41,86,67,49,30.36,30.27,30.14,10,10,10,16,7,24,0.00,3,,179
2013-4-17,72,63,55,57,46,34,90,60,26,30.30,30.21,30.11,10,10,10,15,6,,0.01,4,,15
2013-4-18,62,56,50,55,50,41,94,77,63,30.32,30.23,30.09,10,10,7,14,6,21,0.01,7,Rain,115
2013-4-19,78,66,55,64,59,50,97,81,56,30.08,29.85,29.65,10,9,4,26,7,38,0.27,7,Rain,204
2013-4-20,59,52,46,51,32,22,90,51,30,30.34,30.03,29.76,10,10,6,18,11,31,0.15,3,Rain,298
2013-4-21,54,45,36,28,23,18,57,42,30,30.63,30.54,30.35,10,10,10,15,10,24,0.00,0,,35
2013-4-22,53,43,34,38,32,27,79,63,48,30.64,30.57,30.47,10,10,10,22,9,28,0.00,4,,73
2013-4-23,50,45,42,41,37,32,81,73,62,30.46,30.28,30.15,10,10,10,15,11,18,0.00,7,,34
2013-4-24,71,55,39,54,46,35,89,70,49,30.15,30.00,29.83,10,10,10,14,5,24,0.00,1,,229
2013-4-25,63,54,45,51,30,24,67,41,23,30.29,30.19,29.94,10,10,10,22,14,36,0.00,2,,305
2013-4-26,64,54,44,35,30,24,65,41,24,30.44,30.38,30.30,10,10,10,13,4,17,0.00,0,,318
2013-4-27,69,55,42,33,30,27,60,38,24,30.46,30.38,30.30,10,10,10,8,5,,0.00,0,,36
2013-4-28,70,55,41,41,35,23,82,47,24,30.33,30.27,30.22,10,10,10,9,3,18,0.00,1,Rain,180
2013-4-29,57,54,51,55,52,41,100,92,62,30.24,30.18,30.15,10,7,2,12,7,,0.33,8,Rain,124
2013-4-30,66,58,48,52,43,29,94,66,29,30.33,30.25,30.19,10,9,2,17,9,23,0.01,5,Rain,87